Theta_e
284 285 286 286 287 288 289 291 293 294 295 295 295 296 299 300 301 302 302 302 303 303 305 302 312 314 315 316 317 317 317 316 316 314 313 309 309 306 307 303 303 302 301
284 284 286 286 287 288 289 291 294 295 295 296 297 298 299 300 301 301 301 304 304 305 304 306 309 311 313 312 314 315 315 314 313 314 312 310 308 304 304 300 298 298 298
283 284 285 286 287 288 290 292 293 295 296 296 297 298 299 300 303 304 304 304 305 305 306 306 305 308 310 310 312 312 311 310 312 311 309 308 303 302 299 297 297 296 296
283 284 284 285 287 288 288 288 289 292 294 294 294 296 299 301 301 301 299 301 304 305 306 306 307 308 309 308 309 308 308 309 307 306 305 305 301 297 295 294 294 295 295
283 283 284 284 285 286 287 287 287 290 292 293 292 293 293 293 296 299 301 301 302 304 304 304 303 303 304 304 304 305 305 305 305 305 303 301 297 296 295 294 291 286 284
284 284 284 285 285 286 286 286 286 287 289 290 290 292 294 296 296 296 295 296 296 298 299 298 298 297 296 294 296 294 291 293 296 299 299 298 296 292 286 285 285 284 285
285 286 286 286 286 287 287 287 287 287 288 289 290 290 291 292 293 294 295 294 294 293 293 292 292 290 288 288 288 288 288 288 287 287 287 287 286 286 286 286 286 286 286
287 287 287 287 287 288 288 289 289 288 287 286 288 290 288 286 286 286 286 287 287 288 287 287 288 288 288 288 289 288 288 288 288 288 288 288 288 288 287 287 287 288 287
283 285 285 287 285 285 286 287 288 287 288 290 289 285 286 285 285 285 286 286 287 287 288 288 288 289 289 289 289 289 289 289 289 289 289 289 289 289 288 288 288 287 287
283 283 285 283 283 283 285 284 284 284 284 284 285 285 285 285 285 285 286 287 288 288 288 288 288 289 289 289 289 288 289 289 289 289 289 289 288 288 288 287 287 287 286
283 283 284 284 284 284 284 284 284 284 285 285 285 285 286 286 286 287 287 287 287 288 288 288 288 289 289 289 289 289 289 289 288 288 289 288 288 287 287 287 286 286 285
284 284 284 283 284 284 284 285 285 286 286 287 287 287 287 287 288 288 288 288 288 288 288 288 289 289 289 289 289 289 288 288 288 288 287 287 286 286 286 285 285 284 284
284 284 284 284 284 284 284 285 285 285 285 285 286 286 287 287 288 288 288 288 288 288 288 288 288 288 288 288 288 288 287 286 286 285 284 283 282 282 281 281 281 281 281
285 285 284 284 284 284 284 285 285 285 285 286 286 286 286 287 287 287 287 287 287 287 287 287 287 287 287 286 286 286 286 285 284 283 283 282 281 280 280 279 279 278 278
286 285 285 285 285 285 285 284 285 284 284 285 285 285 285 287 285 285 287 287 286 285 285 286 286 286 286 286 286 285 284 283 283 283 282 282 281 280 279 279 278 277 277
286 286 286 286 286 285 285 285 285 285 285 285 285 285 285 285 285 285 284 285 285 284 284 285 286 286 286 286 286 285 283 283 282 282 282 281 281 280 280 279 278 278 277
286 287 286 286 286 285 285 285 286 285 285 285 285 285 285 285 285 285 284 284 283 282 282 284 285 285 286 285 284 284 284 284 283 282 282 281 280 280 279 279 278 278 277
287 287 286 286 286 285 285 285 284 284 285 285 284 284 284 284 283 283 283 282 282 282 282 283 283 283 283 283 283 283 283 283 282 281 281 280 279 279 278 278 278 278 279
287 287 287 287 286 286 285 285 285 285 285 285 285 285 284 283 282 282 282 281 282 282 282 282 282 281 281 281 281 281 281 281 280 280 280 279 279 278 278 277 278 279 277
287 287 287 287 286 285 285 285 284 284 284 284 284 284 284 283 283 283 282 281 280 280 280 280 280 280 280 280 280 279 279 279 279 279 278 278 278 277 276 277 277 276 275
286 286 286 286 285 285 284 284 284 283 283 283 283 283 282 282 282 282 282 282 281 280 280 279 279 279 278 278 278 277 277 277 276 276 276 276 276 276 277 276 275 274 274
287 286 285 285 284 284 283 283 282 282 281 281 281 281 280 279 279 279 280 280 280 279 279 279 278 278 278 278 277 277 276 276 276 276 275 275 275 275 274 274 273 273 272
287 286 285 284 283 282 282 281 281 281 280 280 280 280 279 279 279 279 279 279 278 278 277 277 276 276 276 276 276 276 276 276 276 275 274 274 273 273 272 272 272 271 271
287 286 285 283 282 281 281 281 280 280 279 279 279 278 278 278 278 277 277 276 276 276 275 275 275 275 274 274 274 273 273 273 273 272 272 272 271 271 271 271 271 271 271
285 284 283 283 282 281 281 280 280 279 279 278 278 278 277 277 277 276 276 275 274 274 274 273 273 273 272 272 272 272 272 272 271 271 271 271 271 270 270 270 270 270 271
283 282 282 281 280 279 278 278 278 278 278 277 277 276 276 275 274 274 274 273 273 272 272 272 272 272 272 272 271 271 271 271 271 271 271 271 270 270 270 270 270 271 271
Wind_Speed
13 12 11 9 8 7 7 7 9 9 10 10 11 11 8 13 15 17 20 19 22 31 30 29 22 20 19 19 18 23 24 25 25 20 25 26 25 29 32 32 32 31 30
12 10 9 7 5 5 5 5 6 7 7 10 9 7 9 9 10 15 21 20 19 20 24 23 23 22 20 21 18 20 19 24 25 22 24 25 28 26 29 29 28 26 25
11 9 7 6 5 4 3 3 5 5 6 9 9 6 9 9 11 14 21 20 17 16 13 13 16 18 17 17 17 15 17 20 20 21 23 23 24 25 24 23 23 22 20
10 8 6 5 4 5 5 2 2 3 6 6 6 5 10 12 14 14 17 17 18 16 15 14 12 10 9 11 12 13 13 14 15 15 17 18 20 19 18 17 17 16 13
11 8 8 7 6 5 4 3 2 1 2 4 5 8 10 11 11 12 12 14 16 17 17 15 14 13 12 10 8 7 7 7 10 12 15 17 18 19 17 15 12 10 11
10 11 11 9 9 9 7 6 6 7 7 10 12 14 14 15 15 14 15 16 17 16 16 16 15 15 13 11 9 11 12 9 11 13 14 14 14 13 13 11 9 9 9
10 13 13 13 13 13 13 13 14 15 14 16 18 19 21 21 19 17 14 15 15 16 15 15 15 14 12 11 10 9 9 9 9 8 8 9 8 8 6 6 7 9 11
13 14 15 14 14 15 14 15 18 20 20 20 20 20 19 19 17 17 14 14 13 14 14 13 11 11 10 9 8 7 7 7 7 6 5 5 5 4 6 7 8 10 13
9 11 13 13 13 12 13 15 16 14 15 16 15 13 13 12 12 12 9 9 10 10 10 10 9 8 7 6 6 5 5 5 4 3 3 3 4 5 7 8 10 11 14
7 9 10 9 8 8 8 8 9 9 9 9 9 9 9 9 9 8 7 6 5 6 7 7 7 6 5 4 4 3 2 2 2 3 3 4 5 7 8 9 11 12 14
6 5 5 6 6 5 5 5 6 6 6 6 6 6 7 7 7 6 6 6 5 4 4 4 4 5 5 4 4 4 3 3 4 5 6 6 8 9 11 12 13 14 15
8 7 6 5 5 5 4 4 4 5 5 5 4 4 4 4 4 4 5 4 4 4 4 4 4 4 4 5 5 6 6 7 8 9 9 10 12 13 14 15 16 17 17
10 9 9 8 8 7 7 6 5 5 5 5 5 5 5 5 5 4 4 5 6 6 7 8 9 10 10 10 11 12 13 13 14 14 14 15 16 17 18 19 20 22 22
14 13 13 12 11 11 10 10 10 9 8 8 8 7 8 8 8 8 9 10 10 11 12 14 15 16 16 16 18 18 18 19 21 21 20 20 22 23 24 25 26 26 30
18 17 17 16 15 15 15 14 14 13 14 14 13 14 14 13 10 15 15 15 15 16 20 21 21 22 23 23 24 23 24 26 28 27 27 27 28 29 30 31 33 34 38
23 22 20 19 18 18 18 18 18 17 18 19 18 19 18 19 18 19 21 21 21 23 26 28 28 29 30 30 30 30 30 31 32 33 34 34 35 35 35 35 36 39 42
28 25 24 23 23 23 22 22 22 20 22 22 23 23 24 23 23 23 25 26 27 28 33 35 35 35 35 35 36 36 35 34 33 35 36 37 38 39 38 38 38 41 45
30 29 28 27 26 26 26 25 25 26 27 26 26 27 28 29 28 28 28 31 34 34 36 38 40 41 42 42 41 42 41 40 40 40 40 40 39 40 41 41 41 44 46
34 33 31 30 30 29 28 29 29 30 31 31 30 28 28 30 33 33 32 35 38 40 41 42 43 44 45 46 47 48 47 47 46 46 46 45 43 41 42 42 44 43 40
36 35 35 34 34 33 33 33 34 34 35 35 36 34 33 34 36 36 35 36 38 40 42 45 46 48 49 49 49 49 49 49 48 47 47 47 45 42 42 41 42 40 40
36 37 37 37 37 36 36 37 37 38 39 39 39 38 38 40 41 41 42 42 42 42 42 43 43 44 44 46 47 48 48 47 46 46 44 43 41 42 41 40 38 37 36
30 33 34 35 35 36 36 37 37 38 39 39 40 39 38 38 39 40 41 42 42 42 42 42 42 42 42 42 42 42 43 43 43 42 41 40 39 39 36 35 34 32 31
24 25 26 27 28 29 30 31 32 32 34 34 35 36 35 36 36 37 37 37 36 36 36 36 38 39 39 38 37 37 38 38 37 37 37 37 36 35 32 31 29 29 29
21 21 22 22 22 23 24 25 26 26 27 28 29 29 29 30 31 32 32 32 32 33 32 32 32 33 33 33 33 33 34 35 35 35 33 33 33 32 31 29 28 27 26
10 11 12 14 16 17 17 18 19 20 21 22 24 25 26 27 29 29 29 30 31 31 32 32 33 33 33 33 33 34 34 33 31 31 31 31 31 30 29 28 27 25 23
4 5 6 8 9 11 12 13 15 16 18 19 20 21 23 24 25 26 27 27 28 29 29 30 30 30 30 31 31 30 30 29 28 27 26 26 27 27 27 26 24 23 22
Wind_Direction
310 309 308 298 292 280 265 242 237 248 257 262 250 247 236 226 214 223 246 247 235 241 243 236 229 229 238 238 223 236 234 231 230 230 235 226 230 230 233 233 237 241 243
324 324 316 309 301 283 273 252 230 241 243 263 266 246 247 229 217 211 233 241 231 221 221 219 225 227 229 243 237 232 233 231 225 229 228 223 227 228 234 230 234 238 241
344 336 329 324 314 287 262 247 245 238 255 267 260 231 238 222 209 192 219 216 216 218 212 211 216 213 223 226 229 230 229 227 232 229 222 219 220 222 225 227 230 234 240
358 354 355 356 352 337 335 316 278 263 250 252 245 200 209 203 196 195 189 185 185 191 188 192 187 181 190 209 216 221 225 231 228 221 216 213 212 208 209 212 218 227 237
19 22 25 25 30 29 19 11 22 159 214 202 183 161 158 157 162 174 177 176 172 166 160 156 154 155 153 157 149 163 172 174 184 189 192 190 187 188 192 197 207 222 240
46 48 49 53 55 64 67 76 91 106 122 133 132 128 129 131 128 134 139 142 138 135 134 138 134 131 136 133 142 152 139 149 160 163 166 170 170 178 186 191 204 230 255
70 72 73 77 79 82 86 91 99 103 107 113 115 114 113 111 108 105 115 124 125 125 127 125 127 132 129 132 132 131 136 135 134 142 155 159 168 183 205 223 244 262 273
84 85 85 87 89 91 96 101 100 98 99 94 92 95 96 103 112 122 125 125 133 130 129 127 129 129 129 131 135 143 149 149 150 155 167 179 193 215 244 265 279 285 287
98 95 92 89 88 94 99 97 98 98 97 100 103 106 112 112 111 111 124 130 131 126 123 124 124 126 128 134 142 156 164 166 174 185 207 242 266 268 266 271 276 284 292
125 117 106 99 97 97 93 87 91 100 105 111 120 123 123 125 124 127 126 120 119 122 129 132 134 141 150 157 162 176 183 192 212 234 250 263 271 277 286 288 294 299 300
175 163 152 137 127 124 121 119 120 123 133 135 138 144 148 149 148 149 148 145 145 150 156 161 167 180 188 195 206 218 232 252 270 277 284 290 293 294 297 298 297 297 296
203 202 202 200 192 186 182 174 170 165 167 166 166 169 172 174 181 179 174 181 188 201 207 219 226 241 247 247 247 246 258 265 267 275 285 292 293 293 291 290 291 294 298
223 223 222 224 225 223 219 217 222 226 224 225 222 221 220 219 221 222 228 237 245 245 248 249 250 254 257 261 263 260 261 264 267 271 278 282 282 278 281 284 287 288 288
232 236 242 242 242 243 244 245 243 240 247 253 256 262 262 258 260 265 263 262 263 264 264 260 260 261 264 267 269 270 272 271 271 272 275 276 276 280 282 281 281 283 282
240 240 243 246 249 254 259 260 261 260 263 264 267 266 267 268 271 266 267 269 270 269 267 268 269 271 269 267 269 270 272 274 274 279 279 281 281 281 282 283 284 283 281
246 245 246 250 253 257 259 260 264 264 266 268 268 271 271 277 274 275 278 279 277 275 272 274 274 273 273 275 275 275 274 275 277 280 280 279 279 279 280 280 280 280 281
249 251 252 252 254 257 260 265 269 267 272 271 273 275 277 277 275 277 279 280 277 276 274 278 277 277 278 279 280 281 281 281 279 275 276 277 278 279 279 280 279 282 282
252 253 253 254 256 259 261 265 270 273 274 269 273 277 278 281 282 282 281 281 279 274 273 277 280 284 286 286 287 286 285 284 282 282 281 281 280 280 280 280 279 280 281
255 256 257 257 257 260 262 264 267 270 273 277 278 274 275 279 282 282 281 278 279 281 283 283 283 284 285 286 287 287 287 286 286 286 284 283 282 281 280 278 280 280 280
255 257 259 260 260 261 262 265 268 271 275 279 282 285 288 287 283 282 282 282 281 281 283 283 285 286 287 287 287 286 286 286 285 285 285 286 285 284 281 282 283 280 278
256 258 260 263 264 267 269 271 274 277 280 283 285 288 289 289 287 287 287 287 287 287 286 285 284 283 282 282 283 283 284 284 284 284 283 283 283 282 284 283 281 279 277
255 258 261 264 268 270 273 276 278 280 282 285 287 288 289 289 290 290 290 291 291 290 288 287 285 284 283 282 281 280 280 280 280 281 282 282 283 283 282 280 279 276 275
256 260 264 267 270 272 275 278 281 282 284 286 288 290 292 293 294 295 294 293 292 291 292 292 293 293 293 291 288 286 285 284 286 285 284 282 281 279 278 277 275 274 274
258 262 266 270 274 277 280 282 283 285 287 290 293 295 296 297 298 300 301 302 301 301 300 299 297 295 293 291 289 287 286 286 284 281 279 278 278 277 276 275 273 272 273
278 280 279 280 283 285 287 289 291 294 297 300 304 306 308 308 309 309 309 309 308 307 305 304 302 300 298 296 292 289 287 285 282 280 277 273 271 271 270 270 270 270 269
309 307 309 310 311 310 311 314 316 318 319 318 317 316 316 315 314 314 314 313 311 308 306 305 302 300 298 296 294 292 289 285 282 278 274 270 268 268 267 265 266 265 267